This demonstration page uses our WeatherBlox Daily Observations layout. Learn more.

Left ArrowRight Arrow

41.86663, -103.66717

Hourly Observations for March 11, 2020

Temp ( °F °C ) Dew Point ( °F °C ) Humidity (%) Winds ( mph kmh ) Pressure ( in mb ) Visibility ( mi km ) Precip ( " mm )
12:53 am 00:53 Clear 39 3.9 24 -4.4 55 55 W 12 19 29.99 1016 10 16 N/A
1:53 am 01:53 Clear 42 5.6 25 -3.9 51 51 W 10 17 29.98 1015 10 16 N/A
2:53 am 02:53 Clear 42 5.6 26 -3.3 53 53 W 13 20 29.97 1015 10 16 N/A
3:53 am 03:53 Clear 40 4.4 25 -3.9 55 55 undefined N/A 29.95 1014 10 16 N/A
4:53 am 04:53 Clear 36 2.2 24 -4.4 62 62 W 7 11 29.97 1015 10 16 N/A
5:53 am 05:53 Clear 34 1.1 23 -5 64 64 S 6 9 30.00 1016 10 16 N/A
6:53 am 06:53 Clear 28 -2.2 22 -5.6 78 78 ESE 6 9 30.01 1016 10 16 N/A
7:53 am 07:53 Sunny 37 2.8 26 -3.3 65 65 S 8 13 29.99 1016 10 16 N/A
8:53 am 08:53 Sunny 52 11.1 29 -1.7 41 41 W 10 17 29.94 1014 10 16 N/A
9:53 am 09:53 Sunny 57 13.9 28 -2.2 33 33 W 21 33 29.93 1014 10 16 N/A
10:53 am 10:53 Sunny 62 16.7 27 -2.8 26 26 W 25 41 29.89 1012 10 16 N/A
11:53 am 11:53 Sunny 66 18.9 26 -3.3 22 22 W 25 41 29.87 1011 10 16 N/A
12:53 pm 12:53 Partly Cloudy 67 19.4 27 -2.8 22 22 WNW 32 52 29.82 1010 10 16 N/A
1:53 pm 13:53 Sunny 62 16.7 26 -3.3 25 25 W 29 46 29.78 1009 10 16 N/A
2:53 pm 14:53 Sunny 63 17.2 28 -2.2 27 27 WNW 24 39 29.75 1007 10 16 N/A
3:53 pm 15:53 Sunny 62 16.7 27 -2.8 26 26 W 20 31 29.73 1007 10 16 N/A
4:53 pm 16:53 Sunny 62 16.7 29 -1.7 29 29 W 12 19 29.72 1007 10 16 N/A
5:53 pm 17:53 Sunny 60 15.6 29 -1.7 31 31 NW 12 19 29.73 1007 10 16 N/A
6:53 pm 18:53 Sunny 59 15 27 -2.8 29 29 W 15 24 29.74 1007 10 16 N/A
7:53 pm 19:53 Clear 57 13.9 27 -2.8 32 32 WSW 20 31 29.70 1006 10 16 N/A
8:53 pm 20:53 Clear 54 12.2 28 -2.2 37 37 W 10 17 29.67 1005 10 16 N/A
9:53 pm 21:53 Clear 53 11.7 29 -1.7 40 40 W 16 26 29.66 1004 10 16 N/A
10:53 pm 22:53 Clear 55 12.8 31 -0.6 40 40 W 18 30 29.61 1003 10 16 N/A
11:53 pm 23:53 Clear 54 12.2 32 undefined 43 43 W 15 24 29.60 1002 10 16 N/A

Powered by AerisWeather